Regional Weather Roundup
Issued by NWS

Home | Current Version | Previous Version | Text Only | Print | Product List | Glossary On
Versions: 1 2 3 4 5 6 7 8 9 10 11 12 13 14 15 16 17 18 19 20 21 22 23 24 25 26 27 28 29 30 31 32 33 34 35 36 37 38 39 40 41 42 43 44 45 46 47 48 49 50
000
ASUS43 KMPX 170910
RWRMN
WEATHER ROUNDUP FOR MINNESOTA
NATIONAL WEATHER SERVICE TWIN CITIES/CHANHASSEN MN
400 AM CDT TUE OCT 17 2017


NOTE: "FAIR" INDICATES FEW OR NO CLOUDS BELOW 12,000 FEET WITH NO
SIGNIFICANT WEATHER AND/OR OBSTRUCTIONS TO VISIBILITY. N/A MEANS
CURRENT SKY AND/OR WEATHER CONDITIONS ARE NOT AVAILABLE.

MNZ060>063-068>070-171000-
   Twin Cities Metro

CITY           SKY/WX    TMP DP  RH WIND       PRES   REMARKS
TWIN CITIES    CLEAR     51  41  68 SW3       29.98S
ST PAUL        CLEAR     45  43  93 CALM      29.99S
CRYSTAL        CLEAR     44  37  76 S5        29.96S
BLAINE         CLEAR     46  41  81 S5        29.96S
LAKEVILLE      CLEAR     48  39  71 CALM      29.98F
EDEN PRAIRIE   CLEAR     47  40  76 SW6       29.97S
SOUTH ST PAUL  CLEAR     43  40  88 CALM      29.98R
LAKE ELMO      FAIR      43  37  81 CALM      29.98S
$$
MNZ001>005-007-008-013>017-022>024-027-028-171000-
   Northwest Minnesota

CITY           SKY/WX    TMP DP  RH WIND       PRES   REMARKS
BEMIDJI        CLOUDY    36  32  85 W5        29.92S
HALLOCK        CLOUDY    36  28  75 S9        29.87S
ROSEAU           N/A     39  34  81 S5        29.88S
WARROAD        CLEAR     37  34  87 S5        29.89S
THIEF RVR FALL CLOUDY    40  33  76 S3        29.91S
CROOKSTON      CLOUDY    34  30  86 S6        29.91F WCI  29
FOSSTON        CLOUDY    37  34  87 S6        29.93S
DETROIT LAKES  PTCLDY    41  39  93 CALM      29.95S
MOORHEAD       CLOUDY    39  36  87 SE5       29.95S
PARK RAPIDS    CLOUDY    37  34  89 CALM      29.93F
MAHNOMEN       FAIR      41  36  82 S6        29.93F
$$
MNZ006-009>011-018-025>026-171000-
   North Central Minnesota

CITY           SKY/WX    TMP DP  RH WIND       PRES   REMARKS
BAUDETTE       CLEAR     40  34  79 SW3       29.89S
FLAG ISLAND    CLEAR     46  37  71 CALM      29.86S
INTL FALLS     CLOUDY    36  31  82 CALM      29.89R
WASKISH        PTCLDY    36  36 100 CALM      29.90F
BIG FORK       PTCLDY    36  34  93 CALM      29.92R
LONGVILLE      CLEAR     37  36  93 CALM      29.93S
GRAND RAPIDS   CLOUDY    45  37  73 CALM      29.93S
CRANE LAKE     CLEAR     34  32  93 CALM      29.90R
ORR            CLOUDY    46  36  66 NW5       29.88R
COOK           CLOUDY    43  37  81 CALM      29.91R
WALKER         FAIR      44  36  71 W3        29.93S
$$
MNZ012-019>021-037-171000-
   Northeast Minnesota

CITY           SKY/WX    TMP DP  RH WIND       PRES   REMARKS
DULUTH         CLEAR     44  38  79 W9        29.91S
ELY            CLEAR     43  36  75 CALM      29.89R
HIBBING        CLOUDY    32  30  92 CALM      29.90S
EVELETH        CLOUDY    39  39 100 CALM      29.91S
DULUTH HARBOR  CLEAR     48  43  81 S7        29.92R
TWO HARBORS    CLEAR     52  41  66 W5        29.88R
SILVER BAY     CLOUDY    48  39  71 W3        29.87R
GRAND MARAIS     N/A     53  39  59 NW8       29.84R
G MARAIS ARPRT CLOUDY    45  34  65 W6        29.87R
$$
MNZ029>031-032-039>041-046>048-054>057-064-171000-
   West Central Minnesota

CITY           SKY/WX    TMP DP  RH WIND       PRES   REMARKS
FERGUS FALLS   CLEAR     43  43 100 CALM      29.97R
WHEATON        CLEAR     46  37  71 SW3       29.97S
MORRIS         CLEAR     39  37  93 CALM      29.95S
ALEXANDRIA     CLEAR     43  40  89 CALM      29.96S
ELBOW LAKE     FAIR      41  39  95 S5        29.96S
WADENA         CLEAR     39  39 100 CALM      29.94F
GLENWOOD       CLEAR     43  39  87 W3        29.96S
APPLETON       CLEAR     45  39  81 SW3       29.96S
BENSON         CLEAR     39  37  93 SW3       29.98S
ORTONVILLE     CLEAR     45  37  76 W5        29.96F
MADISON        CLEAR     46  39  76 W5        29.97F
WILLMAR        FAIR      43  39  87 SW5       29.98S
$$
MNZ033>034-036-042>043-049>051-058-059-171000-
   Central Minnesota

CITY           SKY/WX    TMP DP  RH WIND       PRES   REMARKS
ST CLOUD       CLEAR     38  37  97 CALM      29.96R
SAUK CENTRE    FAIR      40  38  93 CALM      29.96S
PAYNESVILLE    CLEAR     43  40  90 W3        29.97S
AITKIN         CLEAR     34  34 100 CALM      29.92S
PINE RIVER     CLEAR     34  30  86 CALM      29.97S
BRAINERD       CLEAR     38  36  92 CALM      29.95R
STAPLES          N/A     39  39 100 CALM      29.95S
LONG PRAIRIE   FAIR      37  36  93 SE3       29.95S
LITTLE FALLS     N/A     36  34  93 CALM      29.95S FOG
LITCHFIELD     CLEAR     45  41  87 CALM      29.97S
BUFFALO        CLEAR     41  36  82 CALM      29.98S
MAPLE LAKE     CLEAR     41  40  94 CALM      29.97S
HUTCHINSON     CLOUDY    43  40  87 CALM      29.98F
$$
MNZ037-044-045-052-053-171000-
   East Central Minnesota

CITY           SKY/WX    TMP DP  RH WIND       PRES   REMARKS
PRINCETON      CLEAR     37  36  93 CALM      29.96R
MORA           CLEAR     36  34  93 CALM      29.97R
CAMBRIDGE      CLEAR     43  39  87 CALM      29.96R
RUSH CITY      CLEAR     38  36  92 CALM      29.95S
MOOSE LAKE     CLEAR     36  34  93 CALM      29.92S
HINCKLEY       FAIR      36  36 100 CALM      29.95R
CLOQUET        CLEAR     46  36  66 W7        29.92R
MCGREGOR       CLOUDY    41  37  87 CALM      29.94R
$$
MNZ071>073-080-081-089-090-097-098-171000-
   Southwest Minnesota

CITY           SKY/WX    TMP DP  RH WIND       PRES   REMARKS
MONTEVIDEO     CLEAR     48  39  71 W6        29.97F
GRANITE FALLS  CLEAR     43  39  86 SW8       30.00S
CANBY          CLEAR     50  40  67 SW9       29.99F
MARSHALL       CLEAR     48  39  71 W7        30.00R
REDWOOD FALLS  CLEAR     46  38  73 SW6       29.98F
OLIVIA         CLEAR     41  36  81 SW5       29.98R
PIPESTONE      CLEAR     45  37  76 S3        30.02S
WORTHINGTON    CLEAR     49  38  65 SW7       30.04S
JACKSON        CLEAR     46  37  71 SW8       30.03S
TRACY          CLEAR     52  41  65 SW8       30.00S
SLAYTON        CLEAR     48  39  70 CALM      30.03S
$$
MNZ065>067-074>077-082>085-091>093-171000-
   South Central Minnesota

CITY           SKY/WX    TMP DP  RH WIND       PRES   REMARKS
MANKATO        PTCLDY    47  40  76 S7        30.01S
NEW ULM          N/A     45  37  76 SW6       29.99F
ST JAMES       CLEAR     46  39  76 S5        30.02S
FAIRMONT       CLEAR     51  40  65 SW12      30.02F
GLENCOE        CLEAR     45  40  83 S3        29.97S
FARIBAULT      CLEAR     48  41  76 CALM      30.01S
OWATONNA       CLEAR     50  41  71 SW7       30.01F
WASECA         CLEAR     45  37  76 SW5       30.03S
ALBERT LEA     CLEAR     54  43  66 SW7       30.03S
$$
MNZ078>079-086>088-094>096-171000-
   Southeast Minnesota

CITY           SKY/WX    TMP DP  RH WIND       PRES   REMARKS
ROCHESTER      CLEAR     50  40  68 SW13      30.03S
RED WING       CLEAR     43  39  87 CALM      29.98S
STANTON        CLEAR     48  40  74 S6        29.98S
DODGE CENTER   CLEAR     48  39  71 SW9       30.02S
WINONA         CLEAR     50  39  66 CALM      30.02S
AUSTIN         CLEAR     46  37  71 SW5       30.03S
PRESTON        CLEAR     50  39  66 SW13      30.04S
$$
ABBREVIATIONS USED IN REMARKS
   TC - TEMPERATURES IN CELSIUS
  WCI - WIND CHILL INDEX
   HX - HEAT INDEX
  VSB - VISIBILITY
$$




USA.gov is the U.S. government's official web portal to all federal, state and local government web resources and services.